[[{"header":{"parameterUnit":"m.s-1","parameterCategory":1,"la1":30.2991,"la2":30.254,"lo1":-89.0895,"lo2":-89.0444,"dy":0.0017,"dx":0.0017,"nx":28,"ny":28,"refTime":"2023-08-12T21:00:00:Z","depth":0,"parameterNumber":2,"parameterNumberName":"U-component_of_WINDS"},"data":[0,0,0,0,0,0,0,0,0,0,0,0,0,0,0,0,0,0,0,0,0,0,0,0,0,0,0,0,0,0,0,0,0,0,0,0,0,0,0,0,0,0,0,0,0,0,0,0,0,0,0,0,0,0,0,0,0,0,1.4942,1.4942,0,1.5005,1.5006,1.5006,1.4995,1.4994,1.4993,1.4992,1.5057,1.506,1.5063,0,0,0,0,0,0,0,0,0,0,0,0,0,1.4809,1.4812,1.4942,1.4942,1.4943,1.5005,1.5006,1.5007,1.4995,1.4994,1.4992,1.4991,1.5056,1.506,1.5063,0,0,0,0,0,0,0,0,0,0,0,0,0,1.4869,1.4813,1.4941,1.4945,1.4946,1.5005,1.5006,1.5007,1.4995,1.4994,1.4992,1.499,1.5055,1.5059,1.5064,1.5123,0,0,1.5076,1.5078,0,0,0,0,0,0,0,0,1.4866,1.4874,1.4944,1.4945,1.4946,1.499,1.4983,1.5046,1.4996,1.4977,1.4992,1.499,1.5036,1.5042,1.5058,1.5126,1.5129,1.5077,1.5079,1.5081,1.5082,0,0,0,0,0,0,0,1.4862,1.4871,1.4967,1.4945,1.4946,1.4943,1.4949,1.4995,1.5015,1.4978,1.4977,1.4985,1.5037,1.5054,1.5059,1.513,1.5077,1.508,1.5083,1.5085,1.5248,1.525,0,0,0,0,0,0,1.4856,1.4868,1.4965,1.4969,1.4901,1.4946,1.4954,1.4978,1.5015,1.5019,1.4986,1.4984,1.5047,1.5054,1.5061,1.5132,1.5081,1.5085,1.5087,1.5246,1.5248,1.525,0,0,0,0,0,0,1.4854,1.4865,1.4962,1.4918,1.493,1.4951,1.4977,1.498,1.4997,1.5021,1.5024,1.5,1.5046,1.5056,1.5107,1.5134,1.5087,1.5091,1.5244,1.5247,1.5249,1.5274,0,0,0,0,0,0,1.485,1.4864,1.4888,1.4919,1.4933,1.5007,1.4979,1.4982,1.5004,1.5002,1.5035,1.5039,1.5046,1.5101,1.5111,1.5139,1.5094,1.5242,1.5245,1.5248,1.5271,1.5277,1.5283,0,0,0,0,0,1.4845,1.4893,1.4889,1.4901,1.4962,1.5009,1.5017,1.5024,1.5006,1.5029,1.5044,1.5037,1.5129,1.5106,1.5118,1.5147,1.524,1.5244,1.5248,1.5268,1.5276,1.5282,0,0,0,0,0,0,1.4866,1.4897,1.4893,1.4952,1.4978,1.5007,1.5036,1.5032,1.5064,1.506,1.5068,1.5075,1.5127,1.5143,1.5116,1.5205,1.5182,1.5189,1.5193,1.5201,1.5207,1.5201,1.5097,0,0,0,0,0,1.4877,1.4912,1.4938,1.4988,1.5,1.5016,1.5037,1.504,1.5067,1.5078,1.5097,1.5123,1.5157,1.518,1.5214,1.5273,1.5279,1.5299,1.5304,1.5309,1.5314,1.5344,1.5353,1.5264,1.5264,1.5264,0,0,1.4901,1.4922,1.4944,1.4992,1.5012,1.5048,1.5026,1.5065,1.5091,1.5084,1.5133,1.5148,1.5178,1.5233,1.5258,1.5247,1.534,1.5314,1.5318,1.5321,1.5349,1.5358,1.5365,1.5267,1.5266,1.5266,0,0,1.4962,1.4983,1.5025,1.5045,1.5075,1.5085,1.5095,1.5124,1.5133,1.5183,1.5177,1.5208,1.5269,1.5289,1.5308,1.5374,1.5368,1.5384,1.5415,1.5444,1.5451,1.5457,1.5479,1.5487,1.539,1.539,1.539,0,1.4988,1.5041,1.5047,1.5086,1.5107,1.51,1.5142,1.5162,1.5202,1.5216,1.5203,1.5276,1.5296,1.5354,1.537,1.5386,1.5397,1.538,1.5449,1.5456,1.5462,1.5482,1.5491,1.5392,1.5391,1.5391,1.5391,0,1.507,1.5107,1.5138,1.5175,1.5199,1.5239,1.5251,1.5274,1.5274,1.5285,1.5334,1.5357,1.5394,1.5408,1.541,1.5467,1.5458,1.5448,1.5424,1.5472,1.5491,1.5499,1.5394,1.5393,1.5393,1.5393,0,0,1.5147,1.5185,1.5196,1.5212,1.5243,1.5272,1.5311,1.5346,1.5365,1.5393,1.5425,1.5474,1.5464,1.5484,1.5488,1.5514,1.5562,1.5499,1.55,1.5509,1.5623,1.563,1.5639,1.5558,1.556,1.5561,1.562,0,1.5209,1.5279,1.5284,1.5346,1.5379,1.5373,1.5407,1.5429,1.544,1.5469,1.5481,1.5515,1.55,1.5512,1.5537,1.5551,1.5585,1.5547,1.5587,1.5589,1.5578,1.565,1.5658,1.5712,1.5628,1.5629,1.563,0,1.5292,1.532,1.5385,1.541,1.5424,1.5454,1.5485,1.5514,1.5539,1.5545,1.5566,1.5566,1.5605,1.5581,1.5634,1.5608,1.5625,1.5634,1.5636,1.5639,1.5611,1.5653,1.573,1.5737,1.5642,1.5641,1.5641,0,1.5339,1.5393,1.5438,1.5452,1.5483,1.5503,1.5517,1.5541,1.556,1.5588,1.56,1.5632,1.5649,1.5674,1.5681,1.5663,1.5733,1.571,1.5738,1.5738,1.5753,1.5752,1.5832,1.5766,1.5766,1.5766,1.5766,0,1.5407,1.5447,1.5459,1.5487,1.553,1.5535,1.5578,1.559,1.5611,1.564,1.5637,1.5664,1.5673,1.5702,1.5708,1.575,1.5759,1.5764,1.5764,1.5763,1.5762,1.5773,1.5769,1.5768,1.5768,1.5767,1.5767,0,1.5467,1.5477,1.5525,1.5549,1.5556,1.5587,1.5607,1.5633,1.5643,1.5679,1.5688,1.5703,1.5737,1.5746,1.5787,1.5791,1.584,1.5838,1.5831,1.5831,1.5857,1.5854,1.5947,1.5958,1.5886,1.5887,1.5888,0,1.5509,1.5539,1.5566,1.5584,1.5599,1.563,1.5649,1.5655,1.5676,1.5705,1.5727,1.576,1.5786,1.584,1.5854,1.5884,1.5882,1.5913,1.5887,1.5884,1.5881,1.5878,1.588,1.5917,1.5918,1.5919,1.5919,0,1.5583,1.5585,1.5614,1.5643,1.5666,1.569,1.5713,1.5728,1.5737,1.576,1.5794,1.5814,1.5854,1.5886,1.5917,1.593,1.5926,1.5927,1.5935,1.5933,1.5927,1.5928,1.5842,1.5925,1.5924,1.5924,1.5924,1.5923,1.5634,1.5659,1.5681,1.5712,1.5729,1.575,1.5774,1.5786,1.5814,1.5846,1.5848,1.5884,1.5906,1.5946,1.5961,1.5989,1.598,1.5992,1.5995,1.5997,1.5998,1.5923,1.5995,1.5995,1.5995,1.5995,1.5994,0,1.5705,1.5718,1.5747,1.5778,1.5801,1.5794,1.5819,1.5839,1.587,1.5891,1.5916,1.5953,1.5984,1.6,1.603,1.6049,1.6047,1.6056,1.6054,1.6057,1.6006,1.5995,1.6057,1.6057,1.6057,1.6057,1.6057,1.6057,1.5745,1.5786,1.5792,1.5841,1.5854,1.5888,1.5902,1.5921,1.5937,1.5978,1.6003,1.6013,1.6031,1.6062,1.6089,1.6093,1.6103,1.6113,1.6116,1.6067,1.6061,1.6055,1.6045,1.6116,1.6116,1.6165,1.6165,1.6165]},{"header":{"parameterUnit":"m.s-1","parameterCategory":1,"la1":30.2991,"la2":30.254,"lo1":-89.0895,"lo2":-89.0444,"dy":0.0017,"dx":0.0017,"nx":28,"ny":28,"refTime":"2023-08-12T21:00:00:Z","depth":0,"parameterNumber":3,"parameterNumberName":"V-component_of_WINDS"},"data":[0,0,0,0,0,0,0,0,0,0,0,0,0,0,0,0,0,0,0,0,0,0,0,0,0,0,0,0,0,0,0,0,0,0,0,0,0,0,0,0,0,0,0,0,0,0,0,0,0,0,0,0,0,0,0,0,0,0,5.6676,5.6676,0,5.6662,5.6661,5.6661,5.6559,5.6557,5.6554,5.6552,5.6538,5.6539,5.6541,0,0,0,0,0,0,0,0,0,0,0,0,0,5.6615,5.6617,5.6676,5.6676,5.6676,5.6662,5.6661,5.6661,5.656,5.6557,5.6554,5.6551,5.6537,5.6539,5.6542,0,0,0,0,0,0,0,0,0,0,0,0,0,5.6626,5.6618,5.6676,5.6623,5.6618,5.6662,5.6661,5.6661,5.6561,5.6557,5.6553,5.655,5.6536,5.6539,5.6542,5.6635,0,0,5.6551,5.6552,0,0,0,0,0,0,0,0,5.6625,5.6628,5.6631,5.6627,5.6622,5.6608,5.6635,5.6652,5.6561,5.6583,5.6552,5.6548,5.6564,5.6565,5.657,5.6634,5.6633,5.6551,5.6553,5.6554,5.6555,0,0,0,0,0,0,0,5.6624,5.6628,5.667,5.6631,5.6626,5.66,5.6598,5.6638,5.6595,5.658,5.6573,5.6573,5.6561,5.6568,5.6569,5.6633,5.6551,5.6554,5.6555,5.6556,5.6771,5.6775,0,0,0,0,0,0,5.6631,5.6628,5.6671,5.667,5.6614,5.6605,5.6601,5.6617,5.6594,5.6587,5.6576,5.6568,5.6564,5.6566,5.6568,5.6673,5.6554,5.6557,5.6558,5.6767,5.6772,5.6776,0,0,0,0,0,0,5.663,5.6636,5.6671,5.6647,5.6649,5.661,5.6627,5.6618,5.6625,5.659,5.6582,5.6591,5.6562,5.6564,5.6618,5.6672,5.6558,5.6561,5.6762,5.6768,5.6774,5.6886,0,0,0,0,0,0,5.6629,5.6636,5.6671,5.6648,5.6651,5.6722,5.6631,5.6621,5.663,5.6619,5.6602,5.6595,5.6559,5.6615,5.6621,5.6674,5.6563,5.6757,5.6765,5.6772,5.6878,5.6896,5.6911,0,0,0,0,0,5.6627,5.6704,5.6673,5.6679,5.6694,5.6725,5.6727,5.6683,5.6635,5.6669,5.6647,5.6596,5.6666,5.6621,5.6628,5.6682,5.6754,5.6763,5.6771,5.687,5.6892,5.691,0,0,0,0,0,0,5.6733,5.67,5.6666,5.6737,5.6735,5.6708,5.675,5.6708,5.6719,5.6709,5.6654,5.6651,5.6714,5.6703,5.6655,5.677,5.6701,5.6711,5.6774,5.6794,5.681,5.681,5.6565,0,0,0,0,0,5.6765,5.6794,5.6763,5.6829,5.683,5.6791,5.6803,5.6769,5.6765,5.6763,5.6745,5.6743,5.6764,5.6779,5.6796,5.6877,5.6871,5.6917,5.6934,5.6947,5.6956,5.6997,5.7017,5.6805,5.6805,5.6805,0,0,5.6831,5.6816,5.6838,5.685,5.6844,5.6874,5.679,5.6826,5.6848,5.6769,5.6818,5.6805,5.6799,5.6867,5.6896,5.686,5.7014,5.6959,5.697,5.6971,5.7008,5.7028,5.7046,5.6811,5.681,5.6809,0,0,5.6966,5.6959,5.7012,5.7008,5.7,5.6974,5.6987,5.6967,5.6955,5.7004,5.6945,5.6971,5.7008,5.7006,5.701,5.7144,5.7097,5.7152,5.7237,5.7277,5.7294,5.7308,5.7355,5.7372,5.7162,5.7162,5.7162,0,5.7048,5.7092,5.7045,5.7084,5.7091,5.7021,5.7074,5.7073,5.7072,5.7078,5.7038,5.7084,5.7075,5.714,5.7173,5.7179,5.7192,5.7152,5.7295,5.7309,5.7322,5.7366,5.7383,5.7168,5.7168,5.7167,5.7166,0,5.7193,5.7224,5.7268,5.7268,5.728,5.7327,5.7286,5.7304,5.727,5.7248,5.7299,5.7286,5.7299,5.7313,5.728,5.7373,5.7351,5.7305,5.7234,5.735,5.7389,5.7406,5.7178,5.7175,5.7174,5.7172,0,0,5.7392,5.7366,5.7383,5.7381,5.7369,5.7392,5.7435,5.7448,5.7463,5.7466,5.75,5.7534,5.749,5.7495,5.7462,5.7497,5.7603,5.7446,5.7445,5.7474,5.7704,5.7737,5.7757,5.7573,5.7576,5.7578,5.7703,0,5.752,5.7591,5.755,5.7628,5.7655,5.759,5.7628,5.7624,5.7605,5.7625,5.7604,5.7628,5.757,5.7572,5.7605,5.7583,5.7648,5.7574,5.7603,5.7605,5.7604,5.7778,5.7814,5.7932,5.7719,5.7722,5.7723,0,5.7678,5.7686,5.7766,5.7747,5.7757,5.7792,5.78,5.7821,5.7815,5.7799,5.7804,5.7762,5.7803,5.7736,5.7791,5.7741,5.7751,5.7743,5.7746,5.7745,5.7669,5.778,5.7969,5.7986,5.7748,5.7746,5.7744,0,5.7812,5.7844,5.7896,5.7897,5.7877,5.7903,5.7895,5.7886,5.7896,5.7904,5.791,5.7923,5.7929,5.794,5.7903,5.7857,5.7962,5.7892,5.7949,5.795,5.7972,5.7971,5.8163,5.7983,5.7982,5.7982,5.7982,0,5.7958,5.8009,5.7956,5.7987,5.8043,5.7996,5.8052,5.8038,5.803,5.8058,5.8003,5.803,5.798,5.8002,5.7974,5.8023,5.8027,5.8014,5.8005,5.8018,5.8019,5.8022,5.8011,5.7987,5.7986,5.7985,5.7984,0,5.8116,5.8083,5.8135,5.8112,5.8107,5.8149,5.8129,5.8157,5.8135,5.817,5.8176,5.8141,5.8164,5.8129,5.8148,5.8129,5.8197,5.8177,5.8198,5.8191,5.825,5.8244,5.8449,5.8473,5.8279,5.8281,5.8283,0,5.821,5.8248,5.8229,5.8243,5.8239,5.8263,5.8273,5.8229,5.8242,5.8239,5.8267,5.8286,5.8298,5.8338,5.8315,5.8329,5.8308,5.8379,5.8309,5.832,5.8306,5.8303,5.8306,5.8392,5.8394,5.8396,5.8398,0,5.8379,5.8361,5.8377,5.8388,5.8402,5.8409,5.8411,5.8426,5.838,5.8397,5.842,5.843,5.8449,5.8468,5.8477,5.8469,5.8426,5.842,5.8434,5.8445,5.8456,5.8449,5.8234,5.8415,5.8413,5.8412,5.8411,5.841,5.8506,5.8536,5.8527,5.8547,5.8545,5.8549,5.8574,5.8555,5.8573,5.8585,5.8559,5.8588,5.8582,5.8589,5.8586,5.8609,5.8577,5.8598,5.8602,5.8607,5.8616,5.8454,5.861,5.861,5.8609,5.8609,5.8608,0,5.867,5.8662,5.8681,5.8686,5.8702,5.8661,5.8661,5.8677,5.8704,5.8702,5.8715,5.8741,5.8759,5.8738,5.8752,5.8774,5.8755,5.8779,5.8776,5.8775,5.8644,5.8629,5.8795,5.8795,5.8795,5.8795,5.8795,5.8795,5.8757,5.8805,5.8787,5.8833,5.8824,5.8852,5.8856,5.8859,5.8857,5.8888,5.8903,5.8889,5.8879,5.8892,5.8907,5.89,5.8907,5.8939,5.8925,5.8802,5.8784,5.8767,5.8753,5.8941,5.8941,5.9053,5.9054,5.9055]}]]